Location: Newark
(40.9833°N, 0.0333°W)
Time: 16:19:37
(UTC+00:00)

Vanguard 2 Rocket - Pass Details

Date: 03 November 2020
Orbit: 554 x 3326 km, 32.9° (Epoch: 24 November)

Event Time Altitude Azimuth Distance (km) Brightness Sun altitude
Rises 16:56:02 0° 243° (WSW) 3,161 12.3 -1.3°
Reaches altitude 10° 16:58:59 10° 230° (SW) 2,016 10.1 -1.9°
Maximum altitude 17:02:34 25° 174° (S) 1,158 7.6 -2.5°
Drops below altitude 10° 17:05:50 10° 117° (ESE) 1,826 8.1 -3.1°
Enters shadow 17:08:18 - 103° (ESE) 2,768 8.9 -3.5°
Sets 17:08:21 0° 103° (ESE) 2,789 - -3.5°
